STARLINK-11278 [DTC]

Last updated on Fri Sep 13 2024 00:02:05 GMT+0000 (Coordinated Universal Time)

1 60990U 24158A 24256.86539896 .23914869 12572-4 58523-3 0 9996 2 60990 53.1333 77.9345 0009034 295.8373 203.6263 16.45424869 1330

Satellite not in orbit